Location: Newark
(42.5833°N, 2.9500°W)
Time: 09:52:08
(UTC+00:00)

ISS - Visible Passes

Search period start: 19 November 2019 00:00
Search period end: 29 November 2019 00:00
Orbit: 412 x 421 km, 51.6° (Epoch: 19 November)

Date Brightness Start Highest point End Pass type
(mag) Time Alt. Az. Time Alt. Az. Time Alt. Az.
20 Nov -1.3 19:01:10 10° SSW 19:02:09 17° SSW 19:02:09 17° SSW visible
21 Nov -2.5 18:13:17 10° SSW 18:16:06 25° SE 18:16:06 25° SE visible
22 Nov -1.7 17:25:52 10° S 17:27:53 15° SE 17:29:55 10° E visible
22 Nov -2.0 19:00:55 10° WSW 19:02:52 32° WSW 19:02:52 32° WSW visible
23 Nov -3.8 18:12:32 10° SW 18:15:52 71° SE 18:16:38 48° ENE visible
24 Nov -3.0 17:24:21 10° SSW 17:27:31 40° SE 17:30:19 12° ENE visible
24 Nov -1.7 19:01:13 10° W 19:03:14 26° WNW 19:03:14 26° WNW visible
25 Nov -3.1 18:12:32 10° WSW 18:15:47 47° NNW 18:16:51 33° NNE visible
26 Nov -3.7 17:23:57 10° WSW 17:27:18 75° NNW 17:30:24 12° NE visible
26 Nov -1.3 19:01:48 10° WNW 19:03:18 18° NW 19:03:18 18° NW visible
27 Nov -2.2 18:12:56 10° WNW 18:15:50 26° NNW 18:16:48 22° N visible
28 Nov -2.6 17:24:08 10° W 17:27:14 34° NNW 17:30:16 11° NE visible
28 Nov -1.0 19:02:20 10° NW 19:03:09 14° NW 19:03:09 14° NW visible
